Location: Antoign�
(47.0844°N, 0.1131°W)
Time: 22:52:36
(UTC+00:00)

Cosmos 1503 Rocket - Pass Details

Date: 03 March 2021
Orbit: 753 x 790 km, 74.0° (Epoch: 20 April)

Event Time Altitude Azimuth Distance (km) Brightness Sun altitude
Rises 18:28:22 0° 341° (NNW) 3,232 7.5 -7.5°
Reaches altitude 10° 18:30:50 10° 347° (NNW) 2,298 6.6 -7.9°
Maximum altitude 18:35:53 50° 63° (ENE) 959 4.2 -8.8°
Drops below altitude 10° 18:40:53 10° 138° (SE) 2,273 6.1 -9.6°
Sets 18:43:18 0° 144° (SE) 3,193 6.9 -10.0°
